DW5092 Weather Reports


time (UTC)temp
F
wind
direction
speed
knots
gust
knots
rain 1hr
in
rain 24hr
in
rain mn
in
humidity
%
barometer
mb
20260504050002 48 0 0.0 0.0 0.00 0.01 0.01 71 1006.7
20260504044802 48 0 0.0 0.0 0.00 0.01 0.01 70 1006.8
20260504043602 49 0 0.0 0.0 0.00 0.01 0.01 70 1006.9
20260504041202 50 0 0.0 0.0 0.00 0.01 0.01 69 1006.9
20260504040002 51 0 0.0 0.0 0.00 0.01 0.01 67 1007.0
20260504033602 53 0 0.0 0.0 0.00 0.01 0.01 64 1007.2
20260504032403 54 0 0.0 0.0 0.00 0.01 0.01 63 1007.1
20260504024802 55 201 0.0 2.6 0.00 0.01 0.01 62 1007.1
20260504023602 57 213 0.9 5.2 0.00 0.01 0.01 61 1007.1
20260504022403 60 0 0.0 0.0 0.00 0.01 0.01 56 1007.0
20260504021202 63 274 0.9 2.6 0.00 0.01 0.01 49 1007.0
20260504020002 66 0 0.0 0.0 0.00 0.01 0.01 42 1007.1
20260504013602 70 0 0.0 0.0 0.00 0.01 0.01 38 1007.2
20260504012402 71 0 0.0 0.0 0.00 0.01 0.01 34 1007.3
20260504011202 72 349 0.0 4.3 0.00 0.01 0.01 34 1007.5
20260504010003 72 314 0.0 2.6 0.00 0.01 0.01 33 1007.6
20260504004803 72 346 0.9 6.1 0.00 0.01 0.01 31 1007.7
20260504003602 73 334 0.9 5.2 0.00 0.01 0.01 30 1007.7
20260504002402 73 342 1.7 5.2 0.00 0.01 0.01 29 1007.8
20260504001203 74 317 1.7 7.0 0.00 0.01 0.01 29 1008.0
20260504000003 74 324 0.9 4.3 0.00 0.01 0.01 30 1008.1
20260503234802 74 326 1.7 6.1 0.00 0.01 0.01 28 1008.2
20260503233602 74 342 2.6 8.7 0.00 0.01 0.01 28 1008.1
20260503232403 74 333 2.6 11.3 0.00 0.01 0.01 30 1008.4
20260503230002 74 315 3.5 8.7 0.00 0.01 0.01 32 1008.6
20260503224802 74 342 1.7 8.7 0.00 0.01 0.01 33 1008.7
20260503223602 74 351 3.5 10.4 0.00 0.01 0.01 34 1008.8
20260503222403 73 350 2.6 8.7 0.00 0.01 0.01 36 1009.0
20260503221203 73 329 2.6 8.7 0.00 0.01 0.01 37 1009.3
20260503220003 73 321 0.0 5.2 0.00 0.01 0.01 39 1009.4
20260503214802 72 229 1.7 7.0 0.00 0.01 0.01 38 1009.6
20260503213603 72 265 2.6 8.7 0.00 0.01 0.01 39 1009.9
20260503212403 71 242 2.6 9.6 0.00 0.01 0.01 39 1010.2
20260503211203 72 270 3.5 11.3 0.00 0.01 0.01 40 1010.4
20260503210003 71 249 2.6 7.0 0.00 0.01 0.01 45 1010.6
20260503203602 72 303 4.3 12.2 0.00 0.01 0.01 37 1011.0
20260503202403 72 312 2.6 7.8 0.00 0.01 0.01 38 1011.2
20260503200003 71 340 2.6 7.0 0.00 0.01 0.01 41 1011.4
20260503194803 72 308 2.6 10.4 0.00 0.01 0.01 37 1011.5
20260503193602 70 324 1.7 8.7 0.00 0.01 0.01 41 1011.6
20260503191203 71 340 1.7 7.0 0.00 0.01 0.01 40 1012.0
20260503190003 71 7 0.0 6.1 0.00 0.01 0.01 40 1012.2
20260503183603 69 318 0.9 5.2 0.00 0.01 0.01 41 1012.5
20260503182403 68 9 1.7 7.0 0.00 0.01 0.01 39 1012.6
20260503180004 67 194 1.7 6.1 0.00 0.01 0.01 43 1012.9
20260503174803 66 218 0.9 4.3 0.00 0.01 0.01 48 1013.4
20260503172403 63 221 1.7 6.1 0.00 0.01 0.01 54 1013.5
20260503171203 61 198 2.6 7.8 0.00 0.01 0.01 57 1013.5